ONEWEB-0026, 45139

Orbit data source: Space-Track

ONEWEB-0026, 45139 is a payload satellite owned by One Web (UK) in LEO that was launched on Thu, 06 Feb 2020 UTC via a SOYUZ-2-1B launch vehicle from the Tyuratam Missile And Space Complex (TTMTR). Payload-class satellites include a variety of spacecraft equipped with specific instruments for various scientific and technological missions. These include communications satellites like Starlink; space stations such as the ISS; scientific satellites like the Hubble; Earth observation satellites from companies like Planet Labs, Umbra, and HawkEye 360; GPS; miniature CubeSats for education and research; and military/defense satellites.

Loading next visibility...
Identifier
45139, 2020-008J
Orbit
LEO
Country
Flag of UKUK
Related business
Manufacturer
One Web
Mission
Operational Commercial Communications
Bus & Motor
ARROW, Unknown motor
Mass
148 kg wet, ~140 kg dry
Launch date (UTC)
2020-02-06 (6 years ago)
Launch vehicle
SOYUZ-2-1B
Launch site
Tyuratam Missile And Space Complex (TTMTR)
Object type
Payload
Rocket body
Debris
Shape & HBR
Trap Box + 2 Pan, 6.7 m
Radar Cross Section
3.464 m², Large (>1 m²)

Expand to show TLE details & history
Last TLE update: 19 hours ago

TLE from 19 hours ago
0 ONEWEB-0026
1 45139U 20008J   25287.10148476 -.00000117  00000-0 -36618-3 0  9995
2 45139  87.8819  70.0727 0001863  98.0498 262.0841 13.11413101278853
Epoch: 2025-10-14T02:26Z
TLE epoch observation values (Epoch: 2025-10-14T02:26:08.283Z)
Latitude
-0.00005°
Longitude
10.64344°
Altitude
1,220.782 km
Speed
7.244 km/s
True Right ascension
04h 40m 17s
True Declination
0° 00' 00"
Sunlit
Object was in full shadow at epoch
Visualization orbit readout
Latitude
Unknown
Longitude
Unknown
Altitude
Unknown
Speed
Unknown
Apparent Right ascension
Unknown
Apparent Declination
Unknown
Sunlit
N/A
Visualization observer readout
Local Sidereal Time
15:47:24
Azimuth
Unknown
Elevation
Unknown
Doppler factor
Unknown
Orbital elements
Apogee altitude
1,216.23 km
Perigee altitude
1,213.401 km
Semi-major axis
7,592.953 km
Eccentricity
0.00019
Inclination
87.8819°
RAAN
70.0727°
Arg. of periapsis
98.0498°
True anomaly
262.06296°
Mean anomaly
262.0841°
Eccentric anomaly
262.07353°
Mean motion
3.2804 °/min
Orbital period
109.74 mins
BSTAR
-0.00036618
Loading maneuver chart data...
Computing Atmospheric mass density...
Loading historical data...
Loading historical data...
Loading historical data...
Loading historical data...
Loading historical data...
Loading historical data...
Loading historical data...

Documentation

Showing up to 5 results
|